SCP
0 0 0 0 0 0 0 0 0 0 0 0 0 0 0 0 0 0 0 0 0 0 0 0 0 0 0 0 0 -0 0 0 -0 0 0 0 0 0 0 0 0 0 0 -0 0 0 0 0 0 0 0 0 0 0
0 0 0 0 0 0 0 0 0 0 0 0 0 0 0 0 0 0 0 0 0 0 0 0 0 0 0 -0 0 0 -0 0 0 -0 0 0 0 0 0 0 0 0 0 0 0 0 0 0 0 0 0 0 0 0
0 0 0 0 0 0 0 0 0 0 0 0 0 0 0 0 0 0 0 0 0 0 0 0 0 0 0 0 0 0 0 0 -0 0 0 -0 -0 0 0 0 0 0 0 0 0 0 0 0 0 0 0 0 0 0
0 0 0 0 0 0 0 0 0 -0 0 0 0 0 0 0 0 0 0 0 0 0 0 0 0 0 0 0 0 -0 -0 -0 -0 -0 0 0 -0 -0 -0 -0 -0 0 0 0 0 0 0 0 0 0 0 0 0 0
0 0 0 0 0 0 0 0 -0 -0 0 0 0 0 0 -0 0 0 0 0 0 0 0 0 0 0 0 0 0 0 0 0 0 0 0 0 0 -0 -0 -0 0 -0 -0 0 0 0 0 0 0 0 0 0 0 0
0 0 0 0 0 0 0 -0 -0 -0 0 0 0 0 0 0 0 0 0 0 0 0 0 0 0 0 0 0 0 0 0 0 0 0 0 0 -0 0 0 -0 -0 0 -0 -0 -0 0 0 0 0 0 0 0 0 0
0 0 0 0 0 0 -0 -0 -0 -0 0 0 0 0 0 0 0 0 0 0 0 0 0 0 0 0 0 0 0 0 0 0 0 0 0 0 0 0 0 -0 -0 0 -0 -0 -0 0 0 0 -0 0 0 0 0 0
0 0 0 0 0 -0 -0 -0 -0 0 0 0 0 0 0 0 0 0 0 0 0 0 0 0 0 0 0 0 0 0 0 0 0 0 0 0 0 0 0 -0 -0 0 -0 -0 -0 0 0 0 0 0 0 0 0 0
0 0 0 0 -0 -0 -0 -0 -0 0 0 0 0 0 0 0 0 0 0 0 0 0 0 0 0 0 0 0 0 0 0 0 0 0 0 0 0 0 0 -0 0 0 -0 -0 -0 0 0 0 0 0 0 0 0 0
0 -0 0 0 0 -0 -0 -0 -0 0 -0 0 0 0 0 0 0 0 0 0 0 0 0 0 0 0 0 0 0 0 0 0 0 0 0 0 0 0 -0 0 -0 0 0 0 0 0 0 0 0 0 0 0 0 -0
-0 0 0 0 0 0 -0 -0 -0 -0 0 0 0 0 0 0 0 0 0 0 0 0 0 0 0 0 0 0 0 0 0 0 0 0 0 0 0 0 -0 -0 -0 -0 -0 0 0 0 0 0 0 0 0 0 0 0
-0 0 0 0 0 0 0 -0 -0 -0 0 0 0 0 0 0 0 0 0 0 0 0 0 0 0 0 0 0 0 0 0 0 0 0 0 0 0 0 0 -0 -0 -0 -0 -0 0 0 0 0 0 0 0 0 0 0
-0 -0 0 0 0 0 -0 -0 -0 -0 0 0 0 0 0 0 0 0 0 0 0 0 0 0 0 0 0 0 0 0 0 0 0 0 0 0 0 0 0 0 -0 -0 -0 -0 -0 -0 -0 0 0 0 0 0 0 0
-0 -0 -0 0 0 0 -0 0 0 0 0 0 0 0 0 0 0 0 0 0 0 0 0 0 0 0 0 0 0 0 0 0 0 0 0 0 0 0 0 0 0 0 0 -0 0 0 0 -0 -0 0 0 -0 -0 -0
-0 -0 -0 0 0 0 0 0 0 0 0 -0 -0 -0 0 0 0 0 0 0 0 0 0 0 0 0 0 0 0 0 0 -0 0 0 0 0 0 0 0 0 0 0 0 0 0 0 0 0 -0 -0 -0 -0 -0 -0
-0 -0 0 0 0 -0 0 0 0 0 0 0 -0 -0 0 -0 0 0 0 0 0 0 0 0 0 0 0 -0 -0 -0 -0 0 0 0 0 0 0 0 0 -0 -0 -0 0 0 -0 -0 -0 -0 0 0 -0 -0 0 -0
-0 0 0 -0 -0 0 0 0 0 0 -0 -0 0 0 0 0 0 0 0 0 0 -0 0 0 0 0 0 0 0 0 0 0 0 0 0 0 0 -0 -0 -0 -0 0 0 0 0 -0 0 0 0 0 -0 0 -0 0
0 0 0 -0 0 0 0 0 0 0 0 0 -0 -0 -0 -0 -0 -0 -0 -0 -0 0 0 0 0 0 0 0 0 0 0 0 0 0 0 0 0 0 0 0 -0 -0 -0 -0 0 0 0 -0 -0 -0 -0 -0 0 0
-0 -0 -0 -0 0 0 0 0 0 0 0 0 0 0 0 0 0 0 -0 -0 0 0 0 0 0 0 0 0 0 0 0 0 0 0 0 0 0 0 0 0 0 -0 -0 -0 -0 -0 -0 -0 -0 -0 -0 -0 -0 -0
-0 0 0 0 0 0 0 0 0 0 0 0 0 0 0 0 0 0 0 0 0 0 -0 -0 0 0 0 0 0 0 0 0 0 0 0 0 0 0 0 0 0 0 0 0 0 0 0 0 0 0 0 0 0 0
0 0 -0 0 0 0 0 0 0 0 0 0 0 0 0 0 0 0 0 0 0 0 0 0 0 0 0 0 0 -0 0 0 0 0 0 0 0 0 0 0 0 0 0 0 0 0 0 0 0 0 0 0 0 0
0 0 0 0 0 0 0 0 0 0 0 0 0 0 0 0 0 0 0 0 0 0 0 0 0 0 0 0 0 0 0 0 0 0 0 0 0 0 0 0 0 0 0 0 0 0 0 0 0 0 0 0 0 0
0 0 0 0 0 0 0 0 0 0 0 0 0 0 0 0 0 0 0 0 0 0 0 0 0 0 0 0 0 0 0 0 0 0 0 0 0 0 0 0 0 0 0 0 0 0 0 0 0 0 0 0 0 0
0 0 0 0 0 0 0 0 0 0 0 0 0 0 0 0 0 0 0 0 0 0 0 0 0 0 0 0 0 0 0 0 0 0 0 0 0 0 0 0 0 0 0 0 0 0 0 0 0 0 0 0 0 0
-0 0 0 0 0 0 0 0 0 0 0 0 0 0 0 0 0 0 0 0 0 0 0 0 0 0 0 0 0 0 0 0 0 0 0 0 0 0 0 0 0 0 0 0 0 0 0 0 0 0 0 0 0 0
0 0 0 0 0 0 0 0 0 0 0 0 0 0 0 0 0 0 0 0 0 0 0 0 0 0 0 0 0 0 0 0 0 0 0 0 0 0 0 0 0 0 0 0 0 0 0 0 0 0 0 0 0 0
0 0 0 0 0 0 0 0 0 0 0 0 0 0 0 0 0 0 0 0 0 0 0 0 0 0 0 0 0 0 0 0 0 0 0 0 0 0 0 0 0 0 0 0 0 0 0 0 0 0 0 0 0 0
0 0 0 0 0 0 0 0 0 0 0 0 0 0 0 0 0 0 0 0 0 0 0 0 0 0 0 0 0 0 0 0 0 0 0 0 0 0 0 0 0 0 0 0 0 0 0 0 0 0 0 0 0 0
0 0 0 0 0 0 0 0 0 0 0 0 0 0 0 0 0 0 0 0 0 0 0 0 0 0 0 0 0 0 0 0 0 0 0 0 0 0 0 0 0 0 0 0 0 0 0 0 0 0 0 0 0 0
0 0 0 0 0 0 0 0 0 0 0 0 0 0 0 0 0 0 0 0 0 0 0 0 0 0 0 0 0 0 0 0 0 0 0 0 0 0 0 0 0 0 0 0 0 0 0 0 0 0 -0 0 0 0
0 0 0 0 0 0 0 0 0 0 0 0 0 0 0 0 0 0 0 0 0 0 0 0 0 0 0 0 0 0 0 0 0 0 0 0 0 0 0 0 0 0 0 0 0 0 0 0 0 0 0 0 0 0
0 0 0 0 0 0 0 0 0 0 0 0 0 0 0 0 0 0 0 0 0 0 0 0 0 0 0 0 0 0 0 0 0 0 0 0 0 0 0 0 0 0 0 0 0 0 0 0 0 0 0 0 0 0
0 0 0 0 0 0 0 0 0 0 0 0 0 0 0 0 0 0 0 0 0 0 0 0 0 0 0 0 0 0 0 0 0 0 0 0 0 0 0 0 0 0 0 0 0 0 0 0 0 0 0 0 0 0
Wind_Speed_500mb
50 54 56 59 62 64 68 69 70 72 68 65 64 63 57 57 52 40 50 41 44 21 39 43 38 32 30 23 13 8 16 8 12 11 7 8 16 8 13 21 9 21 20 22 30 35 44 23 24 29 21 22 27 27
54 58 61 64 66 69 71 70 69 71 67 64 65 64 60 63 44 34 38 39 33 51 29 31 39 46 46 44 39 13 18 9 7 4 7 6 11 10 16 19 14 26 24 21 22 23 24 21 30 35 35 43 42 49
59 62 63 65 67 70 71 70 67 66 65 64 64 63 66 45 34 26 28 26 31 29 39 40 18 20 28 38 39 27 21 32 33 18 9 7 13 15 18 21 31 34 36 27 30 37 45 47 46 54 51 53 59 56
60 63 67 70 70 71 68 67 63 61 63 62 62 70 58 28 25 17 18 19 23 8 7 13 12 17 17 23 32 47 48 13 19 17 12 11 11 20 19 26 28 28 25 35 43 45 56 64 51 61 71 62 67 71
64 68 70 72 71 69 65 60 56 59 61 60 65 64 27 17 17 7 11 12 10 15 7 20 42 6 6 24 39 37 47 50 33 11 12 10 28 21 27 29 36 43 48 35 36 39 38 46 48 45 51 52 49 56
68 71 72 69 65 60 56 54 54 56 58 67 67 29 12 18 12 6 5 3 4 6 8 6 12 7 8 6 20 32 42 42 39 14 13 21 44 12 9 22 38 63 77 75 54 76 76 62 56 59 64 63 67 62
69 69 66 60 54 51 50 49 50 56 63 66 41 11 18 22 20 8 4 15 16 2 5 8 8 6 14 15 14 25 32 24 25 10 12 11 9 16 8 30 65 64 69 72 68 65 71 74 73 62 60 65 64 63
66 62 55 50 48 47 45 48 54 57 61 47 21 10 11 22 23 20 14 13 8 4 4 6 8 10 8 9 6 17 11 22 13 11 8 6 6 12 11 43 76 77 76 80 81 84 77 73 71 68 63 62 59 63
58 53 46 45 45 44 48 57 55 55 52 23 12 10 11 13 12 13 15 14 6 6 4 4 6 7 14 9 8 10 11 5 8 6 5 4 2 8 35 69 58 32 51 52 48 58 62 62 66 66 65 61 64 57
52 48 42 41 41 46 56 52 54 53 28 14 12 6 8 14 10 11 13 10 9 6 2 4 6 6 7 6 6 4 4 4 5 5 4 3 5 62 99 85 82 37 14 37 38 39 42 38 44 49 57 60 63 67
51 44 36 35 39 50 49 53 58 44 24 12 4 6 9 12 8 9 10 10 9 7 2 8 10 9 5 5 6 2 2 1 7 10 12 8 21 52 105 112 104 99 63 11 16 19 19 27 35 31 22 27 26 38
49 37 32 32 41 43 50 54 56 39 16 18 9 13 12 14 12 11 10 14 8 9 18 13 19 11 12 7 6 4 8 7 12 23 11 12 24 90 97 99 109 106 100 85 60 31 8 28 37 60 87 80 87 67
43 29 28 32 36 43 48 52 51 29 19 22 13 9 12 16 16 12 13 8 14 26 17 42 17 14 9 12 7 9 17 12 5 10 8 15 57 79 86 89 94 108 115 119 122 114 103 91 90 84 84 81 82 85
36 23 24 30 35 37 43 47 52 28 24 11 13 15 11 10 12 5 13 18 28 36 47 35 23 11 11 8 8 14 11 10 13 12 12 21 64 70 71 70 80 92 100 99 105 104 103 102 102 94 82 94 95 96
29 15 18 28 33 28 25 38 41 34 15 13 15 11 12 15 22 23 28 25 27 32 28 20 9 24 14 9 11 11 11 12 13 12 12 51 63 62 63 66 71 72 78 94 93 85 81 82 83 81 73 70 79 81
24 12 15 19 29 36 23 26 20 19 14 15 19 14 26 21 35 44 43 41 40 33 6 9 11 11 16 9 15 14 10 12 10 17 47 49 54 52 54 65 72 75 77 69 70 76 80 67 74 76 72 68 68 67
23 19 17 14 17 25 33 10 14 16 14 10 13 23 24 22 31 37 43 45 36 37 11 10 12 9 8 8 9 7 9 8 29 31 32 37 37 41 45 52 65 67 71 72 70 66 65 64 66 68 70 64 62 62
22 21 20 16 18 7 35 22 11 12 10 10 15 20 26 29 33 39 39 43 28 24 28 11 13 18 9 12 13 17 28 27 21 23 25 30 35 35 37 42 47 53 58 58 55 53 57 56 55 52 50 45 46 47
14 17 23 26 10 8 6 11 10 7 8 5 9 15 18 27 30 31 36 36 30 27 10 12 11 12 15 22 24 27 29 31 26 20 19 25 31 35 35 36 40 43 44 45 47 44 42 44 43 38 35 35 40 38
11 11 18 23 13 6 6 6 7 6 3 6 3 11 11 17 25 26 32 37 33 28 17 9 17 20 22 24 25 24 25 25 24 19 18 21 26 29 34 34 35 35 35 35 35 37 31 32 35 34 36 36 35 35
10 8 11 12 10 10 6 4 5 5 3 2 5 8 5 8 16 23 27 28 31 29 20 18 17 15 14 17 23 23 23 22 21 19 20 21 23 24 27 29 30 31 32 32 30 30 29 28 27 27 28 29 29 31
8 7 5 7 5 5 6 5 4 3 2 3 1 4 5 6 11 12 15 19 22 17 11 8 7 8 10 13 17 21 22 21 19 17 18 18 21 23 25 27 27 27 27 29 28 25 23 22 21 20 22 24 26 26
5 5 5 7 2 4 4 2 1 1 4 3 2 2 5 5 7 4 4 6 7 9 5 4 5 6 5 7 10 16 22 24 23 21 20 19 17 19 20 20 20 21 23 26 24 23 23 22 21 19 19 18 17 18
6 4 4 4 6 3 1 1 0 2 3 3 4 4 3 6 3 3 5 5 8 6 5 8 8 10 12 8 12 18 21 26 26 21 21 21 19 19 18 16 15 13 15 15 16 17 18 19 18 16 15 14 15 16
3 5 3 4 2 3 3 3 3 4 4 4 4 1 2 3 3 2 7 5 5 6 10 10 12 11 13 13 14 16 16 24 27 22 21 19 17 16 16 16 12 14 14 12 13 16 17 17 15 14 13 13 11 12
5 2 2 3 1 5 4 5 3 5 5 3 1 1 3 4 4 2 5 4 3 5 11 14 18 16 9 9 13 15 16 20 22 20 18 16 16 16 17 17 15 13 13 12 12 15 17 16 15 15 12 11 16 13
2 3 3 3 3 3 5 5 7 7 5 4 2 3 4 5 3 3 7 8 3 3 4 5 9 12 12 6 5 4 9 15 16 14 12 12 14 16 17 17 15 13 9 11 14 17 16 15 16 16 15 13 14 14
3 7 5 6 7 8 6 5 4 5 5 3 4 5 4 4 4 3 6 9 10 8 4 3 2 3 2 1 1 5 9 12 14 18 16 13 15 16 18 17 14 7 3 8 11 13 13 14 14 15 15 14 14 14
8 8 9 12 10 9 8 7 7 6 7 9 8 6 6 6 5 3 2 5 7 9 8 7 2 4 5 4 1 3 7 9 11 14 15 14 15 17 17 17 15 8 4 7 12 8 12 12 14 12 11 12 11 13
7 13 8 7 7 6 6 10 11 8 11 14 12 10 11 11 16 15 13 8 14 10 9 7 5 4 4 5 6 8 9 7 7 9 12 13 12 13 15 15 13 11 10 10 10 12 17 17 14 13 11 10 11 12
5 9 8 12 10 12 9 11 13 12 13 13 16 20 21 11 13 15 14 16 8 7 5 2 2 3 3 5 8 11 12 8 7 3 5 8 11 13 14 13 14 14 13 11 11 11 12 12 11 12 11 11 12 13
8 9 8 7 10 8 10 6 7 10 10 10 11 9 7 6 4 2 3 5 1 4 3 2 4 2 1 4 6 8 11 10 5 5 3 8 12 15 15 12 10 11 12 12 12 12 12 12 12 13 14 13 15 15
8 11 12 10 7 5 6 7 7 7 8 6 3 2 3 4 5 2 6 2 3 2 5 3 1 3 4 4 5 9 12 9 6 10 6 9 15 20 16 10 8 9 11 12 14 14 13 13 13 14 14 15 13 14
Wind_Direction_500mb
321 319 321 322 322 321 322 322 322 324 327 326 325 324 322 317 313 303 283 268 240 238 255 257 257 248 255 250 253 301 301 210 251 242 260 262 259 242 275 264 225 202 200 210 232 242 239 262 289 235 10 334 324 315
320 321 322 321 320 321 321 322 323 325 327 326 326 325 327 325 320 311 291 280 268 235 249 265 266 268 254 251 252 233 260 289 196 281 249 268 242 234 254 261 201 243 254 258 215 228 264 275 258 296 308 305 304 305
322 322 322 322 323 321 321 323 326 327 324 328 328 327 331 330 320 309 296 296 226 235 266 269 267 285 248 231 227 228 237 239 250 243 296 266 262 292 265 256 274 260 269 261 265 258 267 271 272 277 285 289 294 292
323 323 324 324 323 321 325 324 328 325 326 329 330 330 335 329 319 306 292 295 243 229 260 290 276 258 251 246 235 230 233 237 247 257 250 251 248 244 257 265 265 269 274 252 259 258 264 265 266 271 275 280 284 287
324 324 325 324 323 325 325 326 327 326 329 330 331 333 345 332 320 354 318 319 286 238 268 291 305 289 238 232 232 226 222 229 229 215 223 234 248 267 254 266 261 250 251 247 250 263 267 264 258 263 268 276 280 282
326 325 327 325 328 328 329 333 333 333 331 330 334 349 56 15 348 62 127 318 9 202 306 296 321 319 291 242 211 215 220 225 226 222 239 252 245 251 252 250 254 251 250 252 258 259 259 262 261 262 264 266 271 276
327 329 328 330 332 336 340 340 339 336 333 334 345 52 45 50 62 60 36 311 324 188 284 288 296 272 293 259 230 226 217 213 220 244 238 250 236 222 255 259 266 255 260 264 257 250 254 255 258 261 266 261 265 268
331 333 335 336 340 345 343 343 340 338 336 340 360 93 45 45 55 47 24 15 52 20 333 308 291 304 329 303 238 178 181 208 230 241 260 243 218 221 260 258 270 264 256 250 249 253 258 257 259 260 256 258 266 261
336 338 340 342 347 347 348 344 343 342 342 355 37 79 39 21 23 23 21 31 15 338 350 334 304 314 322 274 273 192 180 217 233 234 229 263 266 250 275 287 336 264 230 233 241 246 247 248 251 252 254 257 265 255
344 343 345 349 351 351 351 352 352 351 356 24 51 28 29 356 4 11 15 11 351 320 318 245 269 279 300 290 286 324 78 6 314 270 219 275 275 338 351 3 22 21 213 210 226 242 254 238 242 246 247 253 253 273
345 344 352 357 357 355 358 359 359 5 19 35 57 55 357 46 37 18 12 6 336 314 312 277 258 294 297 300 315 303 354 171 342 12 10 343 2 355 355 11 22 33 55 143 209 237 233 241 234 236 257 232 176 163
345 346 358 3 0 359 360 3 360 16 36 49 88 61 38 23 21 6 16 337 330 341 337 322 330 281 308 307 281 347 360 7 36 340 1 20 352 357 2 9 19 29 46 47 53 54 135 53 108 74 71 70 77 79
347 352 7 3 358 0 3 6 5 16 37 35 33 39 29 19 35 25 340 325 322 333 331 331 331 325 318 349 321 24 19 30 2 11 25 6 344 350 2 5 21 36 40 42 49 52 61 62 74 79 85 90 87 79
349 360 15 9 5 6 3 6 10 35 51 44 30 17 28 22 8 272 285 302 295 298 316 333 344 7 358 7 4 351 42 10 15 16 24 352 350 351 360 12 26 32 38 44 56 55 57 61 69 75 73 83 88 87
354 6 20 20 16 17 4 5 18 36 49 47 37 37 19 324 350 344 336 327 330 320 316 342 353 23 32 45 19 8 17 21 14 5 337 332 342 353 8 20 27 30 36 44 48 52 54 61 67 65 60 68 80 81
9 21 22 25 27 19 13 24 21 29 49 50 41 14 1 3 1 7 359 354 352 343 310 17 19 20 37 38 19 17 3 14 351 341 340 341 348 2 12 26 37 41 45 42 43 45 46 47 57 65 71 70 69 72
18 12 2 347 341 342 16 39 33 42 47 50 33 34 15 15 1 0 0 356 356 18 25 54 47 22 12 42 25 40 344 290 308 329 341 345 353 2 16 31 40 41 44 43 39 41 41 45 51 55 56 59 64 65
17 14 5 357 10 39 36 45 60 62 69 54 43 27 27 20 8 10 10 12 19 27 41 60 58 40 48 23 6 0 357 352 351 351 357 358 11 19 28 31 33 34 36 38 35 35 37 38 41 37 38 42 48 51
10 20 17 15 31 66 51 37 55 85 67 62 32 27 24 21 22 20 19 18 24 37 64 64 54 44 42 23 3 359 357 357 348 355 19 22 25 27 31 29 29 28 24 23 30 31 32 35 38 43 45 48 55 55
336 351 11 23 37 63 76 54 68 82 47 64 0 11 10 22 21 25 27 29 35 40 45 66 63 47 30 19 9 3 2 357 1 5 16 22 17 21 23 21 16 15 15 17 17 26 31 35 38 39 50 56 58 58
327 334 358 16 42 66 84 82 73 48 108 338 356 338 9 15 28 31 34 36 48 57 69 58 59 52 35 23 14 10 2 4 2 4 359 357 1 1 360 2 5 9 12 14 15 17 24 32 35 38 48 56 57 58
340 346 23 35 53 73 80 49 67 145 242 11 344 347 14 18 29 32 17 46 49 47 47 49 36 17 16 17 17 15 8 4 358 353 352 349 354 357 358 359 3 8 16 16 18 25 28 26 38 43 48 47 49 53
18 48 54 35 80 53 108 77 243 310 291 29 301 294 15 18 30 304 58 27 62 33 29 347 279 292 321 336 5 8 12 8 359 355 352 346 345 352 355 0 6 11 16 20 26 33 38 45 41 38 33 34 30 22
51 67 51 39 19 86 143 217 331 277 265 291 312 340 22 7 330 327 16 20 32 4 335 309 299 307 297 291 336 348 358 360 355 352 351 350 346 349 352 353 359 8 16 23 35 39 39 35 33 31 27 22 16 12
43 35 17 27 7 295 305 305 304 280 305 317 307 240 62 264 280 2 353 26 354 358 356 345 327 312 323 334 337 343 349 354 351 347 349 355 350 350 357 3 12 18 20 27 29 26 26 22 21 21 21 25 33 39
75 73 39 8 21 305 338 314 326 311 318 280 257 91 230 262 260 354 28 351 307 329 343 346 346 334 304 310 336 340 338 346 350 347 344 354 357 355 352 353 358 16 13 17 10 8 7 9 15 20 25 25 32 29
108 153 179 224 261 274 271 268 280 272 262 259 247 229 242 269 269 148 182 196 205 262 283 298 331 340 333 300 304 334 347 353 356 351 351 357 356 353 348 337 333 330 358 8 1 359 3 8 8 10 10 10 9 10
223 192 248 197 244 249 278 273 244 241 244 211 244 235 250 249 319 357 278 239 225 233 261 270 265 323 312 225 320 342 343 353 358 6 350 355 358 357 357 355 334 299 352 354 2 7 7 6 3 359 0 359 355 355
218 218 215 250 248 240 240 241 257 248 232 217 263 277 262 246 270 231 231 254 254 258 284 263 202 167 158 148 117 4 351 349 348 358 6 9 6 5 6 12 19 25 17 338 339 353 350 353 359 353 357 358 5 2
226 197 232 250 244 253 261 237 289 276 247 259 266 273 271 272 277 288 293 279 295 259 260 225 215 222 276 305 324 323 319 336 346 356 3 7 5 1 8 10 6 359 348 341 334 331 342 346 334 348 349 355 1 360
216 210 240 256 276 296 279 271 275 262 256 260 260 268 286 279 286 286 269 258 261 241 208 177 250 265 307 329 337 339 349 332 293 287 8 357 357 353 349 351 357 358 360 357 348 344 342 344 349 350 343 342 344 347
221 232 261 273 293 278 298 258 261 257 266 262 275 259 272 276 291 302 345 349 106 170 225 302 312 309 334 356 1 358 355 343 297 240 300 351 349 342 341 333 335 348 354 352 353 351 350 347 346 345 343 341 339 335
258 253 255 276 261 258 239 237 251 265 253 266 285 271 291 330 42 53 17 65 134 10 329 324 169 131 86 49 356 349 355 337 239 218 278 328 339 342 356 337 323 334 344 345 340 338 335 337 336 341 342 341 335 336
Wind_Speed_850mb
50 54 56 59 62 64 68 69 70 72 68 65 64 63 57 57 52 40 50 41 44 21 39 43 38 32 30 23 13 8 16 8 12 11 7 8 16 8 13 21 9 21 20 22 30 35 44 23 24 29 21 22 27 27
54 58 61 64 66 69 71 70 69 71 67 64 65 64 60 63 44 34 38 39 33 51 29 31 39 46 46 44 39 13 18 9 7 4 7 6 11 10 16 19 14 26 24 21 22 23 24 21 30 35 35 43 42 49
59 62 63 65 67 70 71 70 67 66 65 64 64 63 66 45 34 26 28 26 31 29 39 40 18 20 28 38 39 27 21 32 33 18 9 7 13 15 18 21 31 34 36 27 30 37 45 47 46 54 51 53 59 56
60 63 67 70 70 71 68 67 63 61 63 62 62 70 58 28 25 17 18 19 23 8 7 13 12 17 17 23 32 47 48 13 19 17 12 11 11 20 19 26 28 28 25 35 43 45 56 64 51 61 71 62 67 71
64 68 70 72 71 69 65 60 56 59 61 60 65 64 27 17 17 7 11 12 10 15 7 20 42 6 6 24 39 37 47 50 33 11 12 10 28 21 27 29 36 43 48 35 36 39 38 46 48 45 51 52 49 56
68 71 72 69 65 60 56 54 54 56 58 67 67 29 12 18 12 6 5 3 4 6 8 6 12 7 8 6 20 32 42 42 39 14 13 21 44 12 9 22 38 63 77 75 54 76 76 62 56 59 64 63 67 62
69 69 66 60 54 51 50 49 50 56 63 66 41 11 18 22 20 8 4 15 16 2 5 8 8 6 14 15 14 25 32 24 25 10 12 11 9 16 8 30 65 64 69 72 68 65 71 74 73 62 60 65 64 63
66 62 55 50 48 47 45 48 54 57 61 47 21 10 11 22 23 20 14 13 8 4 4 6 8 10 8 9 6 17 11 22 13 11 8 6 6 12 11 43 76 77 76 80 81 84 77 73 71 68 63 62 59 63
58 53 46 45 45 44 48 57 55 55 52 23 12 10 11 13 12 13 15 14 6 6 4 4 6 7 14 9 8 10 11 5 8 6 5 4 2 8 35 69 58 32 51 52 48 58 62 62 66 66 65 61 64 57
52 48 42 41 41 46 56 52 54 53 28 14 12 6 8 14 10 11 13 10 9 6 2 4 6 6 7 6 6 4 4 4 5 5 4 3 5 62 99 85 82 37 14 37 38 39 42 38 44 49 57 60 63 67
51 44 36 35 39 50 49 53 58 44 24 12 4 6 9 12 8 9 10 10 9 7 2 8 10 9 5 5 6 2 2 1 7 10 12 8 21 52 105 112 104 99 63 11 16 19 19 27 35 31 22 27 26 38
49 37 32 32 41 43 50 54 56 39 16 18 9 13 12 14 12 11 10 14 8 9 18 13 19 11 12 7 6 4 8 7 12 23 11 12 24 90 97 99 109 106 100 85 60 31 8 28 37 60 87 80 87 67
43 29 28 32 36 43 48 52 51 29 19 22 13 9 12 16 16 12 13 8 14 26 17 42 17 14 9 12 7 9 17 12 5 10 8 15 57 79 86 89 94 108 115 119 122 114 103 91 90 84 84 81 82 85
36 23 24 30 35 37 43 47 52 28 24 11 13 15 11 10 12 5 13 18 28 36 47 35 23 11 11 8 8 14 11 10 13 12 12 21 64 70 71 70 80 92 100 99 105 104 103 102 102 94 82 94 95 96
29 15 18 28 33 28 25 38 41 34 15 13 15 11 12 15 22 23 28 25 27 32 28 20 9 24 14 9 11 11 11 12 13 12 12 51 63 62 63 66 71 72 78 94 93 85 81 82 83 81 73 70 79 81
24 12 15 19 29 36 23 26 20 19 14 15 19 14 26 21 35 44 43 41 40 33 6 9 11 11 16 9 15 14 10 12 10 17 47 49 54 52 54 65 72 75 77 69 70 76 80 67 74 76 72 68 68 67
23 19 17 14 17 25 33 10 14 16 14 10 13 23 24 22 31 37 43 45 36 37 11 10 12 9 8 8 9 7 9 8 29 31 32 37 37 41 45 52 65 67 71 72 70 66 65 64 66 68 70 64 62 62
22 21 20 16 18 7 35 22 11 12 10 10 15 20 26 29 33 39 39 43 28 24 28 11 13 18 9 12 13 17 28 27 21 23 25 30 35 35 37 42 47 53 58 58 55 53 57 56 55 52 50 45 46 47
14 17 23 26 10 8 6 11 10 7 8 5 9 15 18 27 30 31 36 36 30 27 10 12 11 12 15 22 24 27 29 31 26 20 19 25 31 35 35 36 40 43 44 45 47 44 42 44 43 38 35 35 40 38
11 11 18 23 13 6 6 6 7 6 3 6 3 11 11 17 25 26 32 37 33 28 17 9 17 20 22 24 25 24 25 25 24 19 18 21 26 29 34 34 35 35 35 35 35 37 31 32 35 34 36 36 35 35
10 8 11 12 10 10 6 4 5 5 3 2 5 8 5 8 16 23 27 28 31 29 20 18 17 15 14 17 23 23 23 22 21 19 20 21 23 24 27 29 30 31 32 32 30 30 29 28 27 27 28 29 29 31
8 7 5 7 5 5 6 5 4 3 2 3 1 4 5 6 11 12 15 19 22 17 11 8 7 8 10 13 17 21 22 21 19 17 18 18 21 23 25 27 27 27 27 29 28 25 23 22 21 20 22 24 26 26
5 5 5 7 2 4 4 2 1 1 4 3 2 2 5 5 7 4 4 6 7 9 5 4 5 6 5 7 10 16 22 24 23 21 20 19 17 19 20 20 20 21 23 26 24 23 23 22 21 19 19 18 17 18
6 4 4 4 6 3 1 1 0 2 3 3 4 4 3 6 3 3 5 5 8 6 5 8 8 10 12 8 12 18 21 26 26 21 21 21 19 19 18 16 15 13 15 15 16 17 18 19 18 16 15 14 15 16
3 5 3 4 2 3 3 3 3 4 4 4 4 1 2 3 3 2 7 5 5 6 10 10 12 11 13 13 14 16 16 24 27 22 21 19 17 16 16 16 12 14 14 12 13 16 17 17 15 14 13 13 11 12
5 2 2 3 1 5 4 5 3 5 5 3 1 1 3 4 4 2 5 4 3 5 11 14 18 16 9 9 13 15 16 20 22 20 18 16 16 16 17 17 15 13 13 12 12 15 17 16 15 15 12 11 16 13
2 3 3 3 3 3 5 5 7 7 5 4 2 3 4 5 3 3 7 8 3 3 4 5 9 12 12 6 5 4 9 15 16 14 12 12 14 16 17 17 15 13 9 11 14 17 16 15 16 16 15 13 14 14
3 7 5 6 7 8 6 5 4 5 5 3 4 5 4 4 4 3 6 9 10 8 4 3 2 3 2 1 1 5 9 12 14 18 16 13 15 16 18 17 14 7 3 8 11 13 13 14 14 15 15 14 14 14
8 8 9 12 10 9 8 7 7 6 7 9 8 6 6 6 5 3 2 5 7 9 8 7 2 4 5 4 1 3 7 9 11 14 15 14 15 17 17 17 15 8 4 7 12 8 12 12 14 12 11 12 11 13
7 13 8 7 7 6 6 10 11 8 11 14 12 10 11 11 16 15 13 8 14 10 9 7 5 4 4 5 6 8 9 7 7 9 12 13 12 13 15 15 13 11 10 10 10 12 17 17 14 13 11 10 11 12
5 9 8 12 10 12 9 11 13 12 13 13 16 20 21 11 13 15 14 16 8 7 5 2 2 3 3 5 8 11 12 8 7 3 5 8 11 13 14 13 14 14 13 11 11 11 12 12 11 12 11 11 12 13
8 9 8 7 10 8 10 6 7 10 10 10 11 9 7 6 4 2 3 5 1 4 3 2 4 2 1 4 6 8 11 10 5 5 3 8 12 15 15 12 10 11 12 12 12 12 12 12 12 13 14 13 15 15
8 11 12 10 7 5 6 7 7 7 8 6 3 2 3 4 5 2 6 2 3 2 5 3 1 3 4 4 5 9 12 9 6 10 6 9 15 20 16 10 8 9 11 12 14 14 13 13 13 14 14 15 13 14
Wind_Direction_850mb
321 319 321 322 322 321 322 322 322 324 327 326 325 324 322 317 313 303 283 268 240 238 255 257 257 248 255 250 253 301 301 210 251 242 260 262 259 242 275 264 225 202 200 210 232 242 239 262 289 235 10 334 324 315
320 321 322 321 320 321 321 322 323 325 327 326 326 325 327 325 320 311 291 280 268 235 249 265 266 268 254 251 252 233 260 289 196 281 249 268 242 234 254 261 201 243 254 258 215 228 264 275 258 296 308 305 304 305
322 322 322 322 323 321 321 323 326 327 324 328 328 327 331 330 320 309 296 296 226 235 266 269 267 285 248 231 227 228 237 239 250 243 296 266 262 292 265 256 274 260 269 261 265 258 267 271 272 277 285 289 294 292
323 323 324 324 323 321 325 324 328 325 326 329 330 330 335 329 319 306 292 295 243 229 260 290 276 258 251 246 235 230 233 237 247 257 250 251 248 244 257 265 265 269 274 252 259 258 264 265 266 271 275 280 284 287
324 324 325 324 323 325 325 326 327 326 329 330 331 333 345 332 320 354 318 319 286 238 268 291 305 289 238 232 232 226 222 229 229 215 223 234 248 267 254 266 261 250 251 247 250 263 267 264 258 263 268 276 280 282
326 325 327 325 328 328 329 333 333 333 331 330 334 349 56 15 348 62 127 318 9 202 306 296 321 319 291 242 211 215 220 225 226 222 239 252 245 251 252 250 254 251 250 252 258 259 259 262 261 262 264 266 271 276
327 329 328 330 332 336 340 340 339 336 333 334 345 52 45 50 62 60 36 311 324 188 284 288 296 272 293 259 230 226 217 213 220 244 238 250 236 222 255 259 266 255 260 264 257 250 254 255 258 261 266 261 265 268
331 333 335 336 340 345 343 343 340 338 336 340 360 93 45 45 55 47 24 15 52 20 333 308 291 304 329 303 238 178 181 208 230 241 260 243 218 221 260 258 270 264 256 250 249 253 258 257 259 260 256 258 266 261
336 338 340 342 347 347 348 344 343 342 342 355 37 79 39 21 23 23 21 31 15 338 350 334 304 314 322 274 273 192 180 217 233 234 229 263 266 250 275 287 336 264 230 233 241 246 247 248 251 252 254 257 265 255
344 343 345 349 351 351 351 352 352 351 356 24 51 28 29 356 4 11 15 11 351 320 318 245 269 279 300 290 286 324 78 6 314 270 219 275 275 338 351 3 22 21 213 210 226 242 254 238 242 246 247 253 253 273
345 344 352 357 357 355 358 359 359 5 19 35 57 55 357 46 37 18 12 6 336 314 312 277 258 294 297 300 315 303 354 171 342 12 10 343 2 355 355 11 22 33 55 143 209 237 233 241 234 236 257 232 176 163
345 346 358 3 0 359 360 3 360 16 36 49 88 61 38 23 21 6 16 337 330 341 337 322 330 281 308 307 281 347 360 7 36 340 1 20 352 357 2 9 19 29 46 47 53 54 135 53 108 74 71 70 77 79
347 352 7 3 358 0 3 6 5 16 37 35 33 39 29 19 35 25 340 325 322 333 331 331 331 325 318 349 321 24 19 30 2 11 25 6 344 350 2 5 21 36 40 42 49 52 61 62 74 79 85 90 87 79
349 360 15 9 5 6 3 6 10 35 51 44 30 17 28 22 8 272 285 302 295 298 316 333 344 7 358 7 4 351 42 10 15 16 24 352 350 351 360 12 26 32 38 44 56 55 57 61 69 75 73 83 88 87
354 6 20 20 16 17 4 5 18 36 49 47 37 37 19 324 350 344 336 327 330 320 316 342 353 23 32 45 19 8 17 21 14 5 337 332 342 353 8 20 27 30 36 44 48 52 54 61 67 65 60 68 80 81
9 21 22 25 27 19 13 24 21 29 49 50 41 14 1 3 1 7 359 354 352 343 310 17 19 20 37 38 19 17 3 14 351 341 340 341 348 2 12 26 37 41 45 42 43 45 46 47 57 65 71 70 69 72
18 12 2 347 341 342 16 39 33 42 47 50 33 34 15 15 1 0 0 356 356 18 25 54 47 22 12 42 25 40 344 290 308 329 341 345 353 2 16 31 40 41 44 43 39 41 41 45 51 55 56 59 64 65
17 14 5 357 10 39 36 45 60 62 69 54 43 27 27 20 8 10 10 12 19 27 41 60 58 40 48 23 6 0 357 352 351 351 357 358 11 19 28 31 33 34 36 38 35 35 37 38 41 37 38 42 48 51
10 20 17 15 31 66 51 37 55 85 67 62 32 27 24 21 22 20 19 18 24 37 64 64 54 44 42 23 3 359 357 357 348 355 19 22 25 27 31 29 29 28 24 23 30 31 32 35 38 43 45 48 55 55
336 351 11 23 37 63 76 54 68 82 47 64 0 11 10 22 21 25 27 29 35 40 45 66 63 47 30 19 9 3 2 357 1 5 16 22 17 21 23 21 16 15 15 17 17 26 31 35 38 39 50 56 58 58
327 334 358 16 42 66 84 82 73 48 108 338 356 338 9 15 28 31 34 36 48 57 69 58 59 52 35 23 14 10 2 4 2 4 359 357 1 1 360 2 5 9 12 14 15 17 24 32 35 38 48 56 57 58
340 346 23 35 53 73 80 49 67 145 242 11 344 347 14 18 29 32 17 46 49 47 47 49 36 17 16 17 17 15 8 4 358 353 352 349 354 357 358 359 3 8 16 16 18 25 28 26 38 43 48 47 49 53
18 48 54 35 80 53 108 77 243 310 291 29 301 294 15 18 30 304 58 27 62 33 29 347 279 292 321 336 5 8 12 8 359 355 352 346 345 352 355 0 6 11 16 20 26 33 38 45 41 38 33 34 30 22
51 67 51 39 19 86 143 217 331 277 265 291 312 340 22 7 330 327 16 20 32 4 335 309 299 307 297 291 336 348 358 360 355 352 351 350 346 349 352 353 359 8 16 23 35 39 39 35 33 31 27 22 16 12
43 35 17 27 7 295 305 305 304 280 305 317 307 240 62 264 280 2 353 26 354 358 356 345 327 312 323 334 337 343 349 354 351 347 349 355 350 350 357 3 12 18 20 27 29 26 26 22 21 21 21 25 33 39
75 73 39 8 21 305 338 314 326 311 318 280 257 91 230 262 260 354 28 351 307 329 343 346 346 334 304 310 336 340 338 346 350 347 344 354 357 355 352 353 358 16 13 17 10 8 7 9 15 20 25 25 32 29
108 153 179 224 261 274 271 268 280 272 262 259 247 229 242 269 269 148 182 196 205 262 283 298 331 340 333 300 304 334 347 353 356 351 351 357 356 353 348 337 333 330 358 8 1 359 3 8 8 10 10 10 9 10
223 192 248 197 244 249 278 273 244 241 244 211 244 235 250 249 319 357 278 239 225 233 261 270 265 323 312 225 320 342 343 353 358 6 350 355 358 357 357 355 334 299 352 354 2 7 7 6 3 359 0 359 355 355
218 218 215 250 248 240 240 241 257 248 232 217 263 277 262 246 270 231 231 254 254 258 284 263 202 167 158 148 117 4 351 349 348 358 6 9 6 5 6 12 19 25 17 338 339 353 350 353 359 353 357 358 5 2
226 197 232 250 244 253 261 237 289 276 247 259 266 273 271 272 277 288 293 279 295 259 260 225 215 222 276 305 324 323 319 336 346 356 3 7 5 1 8 10 6 359 348 341 334 331 342 346 334 348 349 355 1 360
216 210 240 256 276 296 279 271 275 262 256 260 260 268 286 279 286 286 269 258 261 241 208 177 250 265 307 329 337 339 349 332 293 287 8 357 357 353 349 351 357 358 360 357 348 344 342 344 349 350 343 342 344 347
221 232 261 273 293 278 298 258 261 257 266 262 275 259 272 276 291 302 345 349 106 170 225 302 312 309 334 356 1 358 355 343 297 240 300 351 349 342 341 333 335 348 354 352 353 351 350 347 346 345 343 341 339 335
258 253 255 276 261 258 239 237 251 265 253 266 285 271 291 330 42 53 17 65 134 10 329 324 169 131 86 49 356 349 355 337 239 218 278 328 339 342 356 337 323 334 344 345 340 338 335 337 336 341 342 341 335 336